Torna al catalogo

STARLINK-36069

AttivoComunicazioniVLEO
NORAD 66806·PAYLOAD·🇺🇸 United States

Lanciato Dec 1, 2025 da Cape Canaveral Space Force Station

Loading…

Prossimi Passaggi (prossime 24 ore)

TLE

AggiornatoSource: CelesTrak SupGP

Epoca: Sep 15, 2026, 03:46 UTC

1 66806C 25278R   26258.15743056  .00045021  00000+0  16314-2 0  2580
2 66806  43.0006 124.7002 0001625 271.9449  19.3834 15.27540208    10

Traccia STARLINK-36069 in tempo reale con AllMySat

Download on the App Store